CW5302 Weather Reports


Display with metric or nautical units.
time (UTC)temp
F
wind
direction
speed
MPH
gust
MPH
rain 1hr
in
rain 24hr
in
rain mn
in
humidity
%
barometer
mb
20260901135312 58 308 0.0 0.0 0.00 0.00 0.00 82 1009.0
20260901134331 58 317 0.0 1.0 0.00 0.00 0.00 81 1008.8
20260901133329 58 317 0.0 1.0 0.00 0.00 0.00 81 1008.8
20260901132328 58 317 0.0 0.0 0.00 0.00 0.00 81 1008.8
20260901131324 58 317 0.0 0.0 0.00 0.00 0.00 81 1008.8
20260901130345 58 317 0.0 0.0 0.00 0.00 0.00 82 1008.8
20260901125321 58 317 0.0 0.0 0.00 0.00 0.00 82 1008.8
20260901124320 58 317 0.0 0.0 0.00 0.00 0.00 83 1008.8
20260901123339 57 317 0.0 0.0 0.00 0.00 0.00 83 1008.8
20260901122323 57 317 0.0 0.0 0.00 0.00 0.00 83 1008.8
20260901121322 57 317 0.0 0.0 0.00 0.00 0.00 84 1008.8
20260901120321 57 317 0.0 0.0 0.00 0.00 0.00 84 1008.8
20260901115320 57 317 0.0 0.0 0.00 0.00 0.00 85 1008.8
20260901114319 56 317 0.0 0.0 0.00 0.00 0.00 86 1008.8
20260901113319 56 317 0.0 0.0 0.00 0.00 0.00 87 1008.8
20260901112317 56 317 0.0 0.0 0.00 0.00 0.00 88 1008.8
20260901111315 55 317 0.0 0.0 0.00 0.00 0.00 90 1008.8
20260901110316 55 317 0.0 0.0 0.00 0.00 0.00 91 1008.8
20260901105312 54 317 0.0 0.0 0.00 0.00 0.00 92 1008.8
20260901104313 54 317 0.0 0.0 0.00 0.00 0.00 92 1008.7
20260901103333 54 317 0.0 0.0 0.00 0.00 0.00 92 1008.7
20260901102311 53 317 0.0 0.0 0.00 0.00 0.00 91 1008.7
20260901101330 53 317 0.0 0.0 0.00 0.00 0.00 91 1008.8
20260901100328 54 317 0.0 0.0 0.00 0.00 0.00 91 1008.8
20260901095348 54 317 0.0 0.0 0.00 0.00 0.00 91 1008.7
20260901094345 54 317 0.0 0.0 0.00 0.00 0.00 91 1008.8
20260901093324 54 317 0.0 0.0 0.00 0.00 0.00 91 1008.8
20260901092327 54 317 0.0 0.0 0.00 0.00 0.00 90 1008.6
20260901091325 54 317 0.0 0.0 0.00 0.00 0.00 90 1008.6
20260901090324 55 317 0.0 0.0 0.00 0.00 0.00 89 1008.6
20260901085323 55 317 0.0 0.0 0.00 0.00 0.00 89 1008.7
20260901084322 55 317 0.0 0.0 0.00 0.00 0.00 88 1008.7
20260901083323 55 317 0.0 0.0 0.00 0.00 0.00 87 1008.7
20260901082320 56 317 0.0 0.0 0.00 0.00 0.00 87 1008.8
20260901081319 56 317 0.0 0.0 0.00 0.00 0.00 86 1008.7
20260901080318 56 317 0.0 0.0 0.00 0.00 0.00 85 1008.7
20260901075316 57 317 0.0 0.0 0.00 0.00 0.00 83 1008.7
20260901074315 57 317 0.0 0.0 0.00 0.00 0.00 83 1008.7
20260901073315 58 317 0.0 0.0 0.00 0.00 0.00 81 1008.7
20260901072334 58 317 0.0 0.0 0.00 0.00 0.00 81 1008.5
20260901071352 58 317 0.0 0.0 0.00 0.00 0.00 80 1008.5
20260901070330 59 317 0.0 0.0 0.00 0.00 0.00 78 1008.5
20260901065348 59 317 0.0 0.0 0.00 0.00 0.00 78 1008.4
20260901064348 59 317 0.0 0.0 0.00 0.00 0.00 77 1008.4
20260901063325 59 317 0.0 0.0 0.00 0.00 0.00 77 1008.4
20260901062324 60 317 0.0 0.0 0.00 0.00 0.00 76 1008.6
20260901061323 60 317 0.0 0.0 0.00 0.00 0.00 75 1008.5
20260901060327 60 317 0.0 0.0 0.00 0.00 0.00 75 1008.5
20260901055325 61 317 0.0 0.0 0.00 0.00 0.00 74 1008.4
20260901054324 61 317 0.0 0.0 0.00 0.00 0.00 73 1008.3
20260901053323 61 317 0.0 2.0 0.00 0.00 0.00 72 1008.3
20260901052322 62 317 0.0 0.0 0.00 0.00 0.00 72 1008.4
20260901051317 62 315 0.0 0.0 0.00 0.00 0.00 70 1008.3
20260901050316 63 315 0.0 0.0 0.00 0.00 0.00 67 1008.3
20260901045317 63 315 0.0 0.0 0.00 0.00 0.00 67 1008.2
20260901044316 64 316 0.0 5.0 0.00 0.00 0.00 67 1007.8
20260901043316 64 317 0.0 3.0 0.00 0.00 0.00 67 1007.8
20260901042315 65 317 0.0 2.0 0.00 0.00 0.00 65 1007.7
20260901041313 65 317 0.0 3.0 0.00 0.00 0.00 65 1007.3
20260901040312 66 341 0.0 6.0 0.00 0.00 0.00 64 1007.3
20260901035311 66 301 1.0 7.0 0.00 0.00 0.00 62 1007.1
20260901034313 67 342 1.0 7.0 0.00 0.00 0.00 61 1006.7
20260901033314 68 323 1.0 5.0 0.00 0.00 0.00 59 1006.7
20260901032313 68 309 1.0 6.0 0.00 0.00 0.00 57 1006.4
20260901031312 69 286 1.0 7.0 0.00 0.00 0.00 54 1006.2
20260901030311 70 315 1.0 8.0 0.00 0.00 0.00 53 1006.2
20260901025311 71 300 1.0 9.0 0.00 0.00 0.00 51 1006.1
20260901024330 72 5 1.0 8.0 0.00 0.00 0.00 49 1005.7
20260901023311 73 311 3.0 7.0 0.00 0.00 0.00 48 1005.7
20260901022310 74 305 4.0 10.0 0.00 0.00 0.00 46 1005.6
20260901021311 75 321 2.0 12.0 0.00 0.00 0.00 45 1005.2
20260901020312 76 327 1.0 9.0 0.00 0.00 0.00 45 1005.2
20260901015330 77 24 3.0 12.0 0.00 0.00 0.00 43 1005.1
20260901014327 78 333 1.0 8.0 0.00 0.00 0.00 42 1004.8
20260901013348 79 313 1.0 9.0 0.00 0.00 0.00 42 1004.8
20260901012327 80 287 1.0 7.0 0.00 0.00 0.00 40 1004.7
20260901011324 80 351 2.0 7.0 0.00 0.00 0.00 40 1004.6
20260901010325 80 340 3.0 7.0 0.00 0.00 0.00 39 1004.6
20260901005329 80 304 2.0 8.0 0.00 0.00 0.00 41 1004.6
20260901004327 80 301 3.0 8.0 0.00 0.00 0.00 39 1004.5
20260901003327 81 305 4.0 13.0 0.00 0.00 0.00 37 1004.5
20260901002325 84 294 5.0 12.0 0.00 0.00 0.00 34 1004.1
20260901001323 84 310 4.0 12.0 0.00 0.00 0.00 35 1004.0
20260901000322 85 294 4.0 14.0 0.00 0.00 0.00 36 1004.0
20260831235338 85 307 3.0 13.0 0.00 0.00 0.00 35 1004.0
20260831234315 86 303 2.0 14.0 0.00 0.00 0.00 35 1003.7
20260831233315 87 360 6.0 13.0 0.00 0.00 0.00 32 1003.7
20260831232353 87 296 3.0 13.0 0.00 0.00 0.00 33 1003.6
20260831231332 88 321 8.0 14.0 0.00 0.00 0.00 32 1003.6
20260831230330 88 246 6.0 12.0 0.00 0.00 0.00 30 1003.6
20260831225328 88 334 4.0 13.0 0.00 0.00 0.00 31 1003.5
20260831224325 88 11 4.0 9.0 0.00 0.00 0.00 29 1003.6
20260831223324 89 265 2.0 8.0 0.00 0.00 0.00 29 1003.6
20260831222322 89 308 3.0 9.0 0.00 0.00 0.00 28 1003.6
20260831221322 89 338 5.0 8.0 0.00 0.00 0.00 28 1003.7
20260831220320 88 344 2.0 8.0 0.00 0.00 0.00 28 1003.7
20260831215321 88 304 0.0 7.0 0.00 0.00 0.00 30 1004.0
20260831214319 87 284 0.0 8.0 0.00 0.00 0.00 30 1004.1
20260831213318 86 254 2.0 6.0 0.00 0.00 0.00 29 1004.1
20260831212319 86 360 1.0 7.0 0.00 0.00 0.00 28 1004.3
20260831211317 86 271 1.0 9.0 0.00 0.00 0.00 29 1004.6
20260831210337 84 234 1.0 5.0 0.00 0.00 0.00 29 1004.6
20260831205336 83 265 1.0 5.0 0.00 0.00 0.00 30 1004.7
20260831204313 83 260 1.0 4.0 0.00 0.00 0.00 30 1005.1
20260831203332 82 350 1.0 7.0 0.00 0.00 0.00 31 1005.1
20260831202330 82 297 0.0 2.0 0.00 0.00 0.00 32 1005.3
20260831201327 80 296 1.0 3.0 0.00 0.00 0.00 32 1005.6
20260831200326 80 264 1.0 5.0 0.00 0.00 0.00 34 1005.6
20260831195344 79 211 2.0 7.0 0.00 0.00 0.00 35 1005.7
20260831194322 79 284 2.0 5.0 0.00 0.00 0.00 37 1005.7
20260831193322 78 277 2.0 5.0 0.00 0.00 0.00 38 1005.7
20260831192322 77 293 1.0 3.0 0.00 0.00 0.00 40 1006.1
20260831191319 76 202 0.0 2.0 0.00 0.00 0.00 41 1006.2
20260831190319 75 233 0.0 3.0 0.00 0.00 0.00 42 1006.2
20260831185318 75 222 1.0 4.0 0.00 0.00 0.00 42 1006.7
20260831184317 75 311 0.0 2.0 0.00 0.00 0.00 42 1006.9
20260831183317 74 317 0.0 2.0 0.00 0.00 0.00 46 1006.9
20260831182338 73 35 0.0 2.0 0.00 0.00 0.00 47 1007.0
20260831181321 72 134 0.0 2.0 0.00 0.00 0.00 48 1007.2
20260831180320 71 134 0.0 3.0 0.00 0.00 0.00 50 1007.2
20260831175320 71 173 1.0 2.0 0.00 0.00 0.00 51 1007.3
20260831174319 70 263 0.0 1.0 0.00 0.00 0.00 53 1007.5
20260831173318 69 44 0.0 2.0 0.00 0.00 0.00 55 1007.5
20260831172315 68 10 0.0 3.0 0.00 0.00 0.00 55 1007.5
20260831171333 68 355 0.0 3.0 0.00 0.00 0.00 55 1007.7
20260831170334 67 340 0.0 1.0 0.00 0.00 0.00 56 1007.7
20260831165312 67 340 0.0 2.0 0.00 0.00 0.00 58 1007.8
20260831164331 66 355 0.0 0.0 0.00 0.00 0.00 59 1007.8
20260831163330 64 355 0.0 0.0 0.00 0.00 0.00 63 1007.8
20260831162328 63 355 0.0 0.0 0.00 0.00 0.00 63 1008.0
20260831161349 62 355 0.0 0.0 0.00 0.00 0.00 63 1008.2
20260831160327 60 355 0.0 0.0 0.00 0.00 0.00 66 1008.2
20260831155325 58 355 0.0 0.0 0.00 0.00 0.00 68 1008.3
20260831154326 56 355 0.0 0.0 0.00 0.00 0.00 71 1008.3
20260831153325 54 355 0.0 0.0 0.00 0.00 0.00 79 1008.3
20260831152322 52 355 0.0 0.0 0.00 0.00 0.00 81 1008.4
20260831151321 51 355 0.0 0.0 0.00 0.00 0.00 84 1008.4
20260831150324 50 355 0.0 0.0 0.00 0.00 0.00 86 1008.4
20260831145322 49 355 0.0 0.0 0.00 0.00 0.00 88 1008.4
20260831144321 48 355 0.0 0.0 0.00 0.00 0.00 89 1008.3
20260831143322 48 355 0.0 0.0 0.00 0.00 0.00 89 1008.3
20260831142320 47 355 0.0 0.0 0.00 0.00 0.00 89 1008.2
20260831141318 47 355 0.0 0.0 0.00 0.00 0.00 89 1008.2
20260831140318 47 355 0.0 0.0 0.00 0.00 0.00 89 1008.2